Tracking 19854 objects as of 22-Sep-2019
HD Live streaming from Space Station
objects crossing your sky now

SL-14 DEB

Track SL-14 DEB now!
10-day predictions


NORAD ID: 39972
Int'l Code: 1987-068CY
Perigee: 928.0 km
Apogee: 957.9 km
Inclination: 82.5 °
Period: 103.7 minutes
Semi major axis: 7313 km
RCS: 0.0139 m2 (small)
Launch date: August 18, 1987
Source: Commonwealth of Independent States (former USSR) (CIS)
Launch site: PLESETSK MISSILE AND SPACE COMPLEX (PKMTR)

Note: This is SATELLITE DEBRIS
aabbcc
Your satellite tracking list
Your tracking list is empty




NASA's NSSDC Master Catalog

Two Line Element Set (TLE):
1 39972U 87068CY  19263.64901923  .00000120  00000-0  88410-4 0  9992
2 39972  82.4968  26.2460 0020405 173.0893 187.0554 13.87960190834987
Source of the keplerian elements: AFSPC